Temperature
15 14 15 15 15 15 15 15 15 15 16 16 16 16 16 16 16 16 16 16 16 15 15 15 15 15 14 14 15 14 14 14 14 14 15 15 15 16
14 14 14 14 14 15 15 15 15 15 16 17 16 16 16 16 16 16 16 16 16 15 15 15 15 14 14 14 15 14 14 13 14 14 14 15 15 16
14 13 13 13 14 14 14 14 14 15 15 16 16 16 16 16 16 16 16 16 15 15 15 15 15 14 14 14 14 14 14 14 14 14 14 15 15 16
13 13 13 13 13 13 13 14 14 14 15 16 16 16 16 16 16 16 15 15 15 15 15 15 15 14 14 14 14 14 15 15 15 14 15 15 15 15
13 13 13 13 13 13 13 13 13 14 14 15 15 15 15 16 16 15 15 15 15 15 15 15 15 15 14 14 14 15 15 15 15 15 15 15 15 15
13 13 13 13 13 13 13 13 13 13 14 14 14 14 15 15 15 15 15 15 15 14 14 14 14 14 14 14 14 14 15 15 15 14 14 14 14 15
14 14 13 13 13 12 12 12 12 12 12 13 13 14 14 15 15 15 14 14 14 14 14 14 14 14 14 14 14 14 14 14 14 14 14 14 15 15
14 14 13 13 13 12 12 12 12 12 12 12 13 13 13 13 14 13 13 13 13 14 14 14 14 14 14 14 14 14 14 14 14 14 14 14 15 15
14 14 14 13 13 13 12 12 12 12 12 12 12 12 12 13 13 13 13 13 14 14 13 13 13 14 14 14 14 14 14 14 13 13 13 14 14 15
14 14 14 13 13 13 13 12 12 12 12 12 12 12 12 13 13 13 13 13 13 13 13 13 13 14 14 13 13 13 13 14 13 13 13 14 14 14
14 14 14 13 13 13 13 13 12 12 12 12 12 12 12 13 13 13 13 13 13 14 13 13 13 13 13 13 13 13 13 14 14 13 13 13 13 13
13 13 13 13 13 13 13 13 13 13 13 12 12 12 12 12 13 13 13 13 13 13 13 13 13 13 13 13 14 13 13 14 14 13 13 13 13 13
13 13 13 13 13 13 13 13 13 13 13 13 13 13 13 13 13 13 13 13 13 12 12 12 12 12 12 12 13 13 14 14 13 13 13 13 13 13
12 13 13 13 13 13 13 13 13 13 12 12 12 13 13 13 13 13 12 12 12 12 12 12 12 12 12 12 12 12 13 13 13 13 13 12 13 13
12 12 12 12 12 12 12 13 12 12 12 12 12 12 12 12 12 12 11 11 11 11 11 11 11 11 11 11 12 12 12 12 12 12 12 12 12 12
11 11 11 12 12 12 12 12 12 12 12 12 12 11 11 11 11 11 11 11 11 11 11 11 11 11 11 11 11 11 11 11 11 11 11 11 11 11
10 11 11 11 11 11 11 11 11 11 11 11 11 11 11 10 10 10 10 10 11 11 11 10 10 10 10 10 10 10 10 10 10 10 10 10 10 10
10 10 11 11 11 11 11 11 11 11 11 11 10 10 10 10 10 10 10 10 10 10 10 10 10 10 10 10 10 10 10 10 10 10 10 10 10 10
10 10 10 11 11 11 11 11 11 11 11 11 10 10 10 10 10 10 10 10 10 10 10 10 10 10 10 10 10 10 10 10 10 10 10 10 10 10
10 10 10 10 10 10 10 10 10 10 10 10 10 10 10 10 10 10 9 9 9 9 10 10 9 9 9 9 9 10 10 10 9 9 10 10 10 10
10 10 10 10 10 10 10 10 10 10 10 9 9 9 9 9 9 9 9 9 9 9 9 9 9 9 9 9 9 9 10 9 9 9 9 9 9 9
10 10 9 9 9 9 9 9 9 9 9 9 9 9 9 9 9 9 9 9 9 9 9 9 8 8 8 8 8 9 9 9 8 8 8 8 8 8
9 9 9 9 9 9 9 9 9 9 9 9 9 9 9 9 9 9 8 8 8 8 8 8 8 8 8 8 8 8 8 8 8 8 8 8 8 8
Wind_Speed
7 8 7 6 6 6 6 6 6 6 7 7 6 6 10 13 15 14 13 12 11 9 7 5 2 1 1 1 2 5 6 5 4 3 4 5 7 10
6 7 8 6 6 6 6 6 7 7 7 7 7 5 7 10 15 15 15 13 13 11 9 7 5 4 4 3 3 4 6 5 4 2 1 3 5 8
5 6 8 8 7 6 6 5 6 5 6 4 3 4 7 7 8 12 14 13 13 14 13 11 9 7 6 5 4 4 4 3 2 3 1 1 3 5
6 6 7 7 8 7 7 6 5 5 5 4 4 3 5 7 7 6 8 11 13 15 16 15 13 10 8 7 6 5 3 1 1 2 3 2 2 3
5 6 6 6 6 6 7 7 5 4 3 3 3 2 2 3 4 4 4 5 9 13 16 16 15 12 10 9 8 7 5 3 3 4 5 4 3 2
4 4 5 6 6 7 7 8 7 5 3 3 3 2 2 2 3 4 4 5 5 8 12 13 15 15 14 12 10 9 7 6 6 6 5 4 3 2
4 4 5 7 9 7 5 6 6 5 4 3 3 3 3 3 5 5 6 4 4 4 4 6 9 10 12 14 13 12 11 10 10 9 8 6 4 2
6 5 5 7 10 11 10 10 9 6 5 4 2 2 3 3 4 5 5 4 4 5 6 6 4 7 8 13 16 15 14 13 14 13 11 9 6 4
7 6 5 7 10 7 10 13 12 12 10 6 5 5 5 5 5 7 8 8 8 5 5 5 4 7 8 14 18 18 17 16 16 15 14 11 9 7
7 7 7 7 7 9 8 9 9 10 12 9 7 8 8 7 8 9 9 9 4 3 6 5 5 6 6 13 18 21 21 21 19 18 16 14 12 10
5 5 6 7 11 12 9 8 7 8 11 13 13 14 15 15 11 6 6 6 6 5 6 6 4 4 3 5 14 21 23 24 22 20 18 16 15 12
3 4 5 6 9 10 9 8 8 7 7 8 9 10 8 6 7 7 6 6 4 4 5 6 4 4 3 3 3 9 14 20 23 22 20 18 16 11
4 4 4 6 8 8 10 8 9 6 5 6 5 4 2 1 1 2 4 5 6 5 3 5 4 5 4 3 2 3 5 6 11 14 18 19 18 14
4 4 5 6 6 5 6 7 9 8 5 4 3 2 1 0 0 1 1 1 2 2 2 4 4 5 4 4 3 2 4 5 6 5 10 14 16 18
4 7 8 7 5 4 6 8 8 6 5 4 3 2 1 1 2 1 1 1 1 1 2 3 3 3 4 4 3 3 3 4 6 7 7 8 7 7
3 3 0 5 6 6 6 5 4 4 4 4 3 2 1 1 1 1 1 0 1 3 3 5 5 4 3 4 4 4 4 3 3 6 6 6 7 11
2 1 2 3 4 4 4 4 3 4 3 3 3 2 2 2 2 2 2 2 2 2 3 2 4 5 5 5 5 6 5 5 5 4 5 6 8 8
1 2 2 3 4 4 4 3 3 3 3 3 2 2 3 3 3 3 3 3 4 4 4 2 1 2 2 4 8 7 6 5 5 7 7 6 8 7
2 3 3 3 3 4 3 3 2 2 3 3 2 2 3 3 3 2 2 2 3 4 4 3 2 3 4 5 5 9 7 5 4 5 7 8 8 6
4 5 5 4 4 4 3 2 2 2 2 2 1 1 2 2 2 2 2 2 3 4 4 3 3 4 5 5 4 4 11 7 5 6 6 6 7 6
4 5 5 4 4 4 3 4 4 4 3 3 2 2 2 1 2 3 3 5 4 4 5 5 4 5 4 3 4 4 4 9 11 6 4 5 5 4
5 5 5 5 5 5 5 5 5 5 4 3 1 1 2 2 3 4 4 4 4 4 5 4 2 1 1 3 6 6 5 3 4 7 6 4 3 4
5 5 5 6 6 5 5 5 4 3 2 2 1 2 2 2 3 3 4 4 4 5 4 3 1 1 2 3 4 5 6 6 3 2 2 1 3 4
Wind_Direction
205 204 206 205 199 195 189 186 190 207 225 218 208 204 189 185 188 186 187 190 189 188 181 175 174 193 236 272 333 342 339 342 356 19 14 8 15 24
199 201 211 212 205 200 198 198 204 205 219 216 206 196 183 188 190 188 192 197 197 195 192 194 203 214 226 244 289 323 326 319 317 322 343 11 23 24
225 212 218 210 206 196 187 187 195 192 209 223 196 190 177 179 178 187 195 199 201 203 203 205 211 219 226 235 257 287 309 305 277 255 225 44 29 33
234 224 223 214 202 191 185 179 178 184 185 192 192 182 188 186 170 176 186 197 202 208 209 210 213 219 226 235 251 265 282 252 136 161 139 95 63 42
238 226 219 201 192 181 178 175 168 163 155 164 185 184 182 168 160 179 189 201 210 216 215 217 218 221 227 234 243 255 257 213 163 141 132 118 98 80
249 222 201 188 178 169 173 172 164 153 145 139 150 175 187 158 157 177 202 215 220 215 213 214 219 223 227 234 240 245 244 219 189 169 157 147 139 125
243 217 191 185 181 176 168 169 165 159 153 147 159 172 177 162 196 191 207 210 233 215 204 212 214 222 225 233 239 239 238 224 204 190 182 173 166 159
219 222 218 215 214 211 200 186 177 171 171 161 157 199 211 214 206 196 198 192 243 215 196 224 197 224 225 228 234 235 238 231 216 204 196 185 173 166
208 210 224 228 225 220 223 215 203 196 191 178 189 214 221 220 218 210 205 209 223 196 175 232 214 234 230 231 232 231 233 232 222 210 204 197 190 190
216 212 222 241 226 212 211 213 212 209 206 206 212 225 233 232 230 227 222 226 237 189 170 209 212 223 224 224 230 226 224 223 218 210 207 204 204 208
232 224 222 237 247 220 200 207 213 218 216 220 229 241 248 251 243 226 206 201 228 226 191 202 214 211 228 228 227 225 220 217 212 210 210 208 208 213
264 268 262 252 248 221 196 199 210 217 204 212 228 238 239 250 233 212 206 205 214 240 200 189 186 168 253 260 228 219 216 213 209 210 212 212 209 206
257 268 280 286 258 225 192 195 204 185 168 164 157 155 160 191 255 222 210 209 217 241 210 180 184 183 215 254 284 219 193 191 202 213 218 218 213 204
244 250 262 267 240 201 183 189 171 144 127 127 130 140 151 174 66 99 139 154 188 215 195 187 196 192 194 212 249 247 210 200 197 207 216 224 226 220
260 267 265 246 194 170 162 150 139 134 136 137 140 146 157 154 127 98 55 42 345 244 207 196 189 187 198 214 217 192 212 224 213 217 215 219 221 216
298 314 95 139 130 125 121 114 121 147 145 142 141 139 122 126 157 169 177 248 303 295 253 218 206 194 198 200 193 199 200 226 213 216 221 226 226 224
274 188 143 149 148 135 118 120 128 129 125 120 124 144 179 207 224 214 203 206 233 270 287 258 229 235 227 207 214 217 210 217 216 200 208 236 237 227
263 165 160 155 147 145 142 135 133 140 145 145 156 181 205 218 228 224 217 221 239 255 264 272 274 284 279 255 227 229 223 226 215 205 203 226 247 233
55 102 111 114 120 135 141 142 156 167 155 155 180 211 224 229 224 230 233 246 266 275 278 279 267 260 272 278 259 219 222 224 205 208 213 218 235 228
37 65 77 88 101 112 118 107 92 92 95 88 72 23 355 333 312 297 290 276 279 284 288 281 261 257 265 277 274 254 220 226 226 232 228 223 234 224
57 71 77 82 85 88 87 81 75 70 64 60 38 4 336 315 289 279 273 270 261 258 264 263 250 256 262 269 272 271 249 226 234 244 236 226 224 216
55 64 64 65 61 58 58 64 68 67 68 70 50 345 307 271 266 262 251 248 246 247 255 257 261 305 247 254 275 285 285 264 248 254 255 244 224 226
51 59 61 57 51 52 58 65 72 70 63 40 347 313 314 305 292 278 271 265 264 267 267 267 252 225 242 257 278 288 294 298 285 265 235 84 45 29
Height
1511 1513 1515 1518 1520 1522 1524 1526 1530 1531 1531 1532 1534 1535 1537 1538 1539 1539 1540 1540 1542 1542 1542 1541 1541 1540 1539 1537 1536 1535 1534 1533 1533 1532 1532 1531 1530 1529
1505 1507 1509 1512 1514 1517 1519 1521 1524 1526 1527 1528 1531 1533 1534 1536 1537 1537 1538 1538 1539 1540 1540 1539 1539 1538 1537 1535 1534 1533 1532 1532 1531 1531 1531 1530 1529 1528
1501 1502 1503 1505 1508 1511 1513 1516 1518 1521 1522 1524 1526 1528 1530 1532 1533 1535 1535 1536 1537 1538 1538 1537 1537 1536 1534 1533 1531 1530 1530 1529 1529 1529 1529 1528 1528 1527
1496 1496 1497 1499 1501 1504 1507 1510 1513 1516 1518 1519 1521 1524 1526 1528 1529 1531 1532 1532 1533 1534 1534 1534 1534 1533 1531 1530 1529 1528 1527 1527 1527 1527 1527 1526 1526 1525
1492 1492 1493 1495 1496 1499 1501 1504 1507 1510 1513 1515 1517 1520 1522 1523 1525 1526 1528 1529 1530 1530 1531 1531 1531 1530 1529 1528 1527 1525 1525 1524 1524 1524 1524 1524 1524 1524
1491 1490 1491 1492 1494 1496 1497 1499 1501 1504 1507 1509 1512 1515 1517 1518 1520 1521 1523 1525 1526 1526 1527 1527 1528 1527 1526 1525 1524 1523 1522 1522 1521 1521 1521 1521 1521 1521
1491 1491 1491 1491 1492 1494 1495 1496 1497 1498 1501 1504 1507 1510 1512 1513 1515 1518 1519 1521 1521 1522 1522 1522 1523 1523 1523 1522 1521 1520 1519 1519 1519 1518 1518 1518 1518 1518
1492 1491 1491 1491 1492 1492 1493 1494 1495 1496 1497 1499 1501 1504 1507 1509 1511 1514 1515 1516 1516 1518 1517 1518 1518 1518 1518 1518 1517 1517 1516 1516 1516 1516 1516 1515 1514 1514
1492 1491 1491 1491 1491 1491 1491 1492 1493 1493 1495 1496 1498 1500 1503 1505 1507 1509 1510 1510 1511 1513 1514 1513 1514 1514 1514 1514 1514 1513 1513 1512 1512 1513 1513 1512 1511 1510
1490 1490 1489 1490 1490 1490 1490 1490 1490 1491 1491 1493 1495 1497 1499 1501 1502 1504 1505 1506 1507 1508 1509 1508 1509 1510 1511 1510 1510 1509 1509 1509 1509 1509 1510 1509 1508 1507
1487 1487 1487 1488 1488 1489 1489 1489 1489 1489 1490 1490 1492 1494 1496 1497 1499 1500 1501 1501 1501 1502 1503 1504 1504 1504 1505 1506 1506 1506 1506 1506 1506 1506 1506 1506 1505 1504
1483 1483 1484 1484 1485 1486 1486 1487 1487 1488 1489 1489 1490 1491 1492 1493 1495 1497 1497 1497 1497 1498 1499 1499 1499 1500 1500 1500 1501 1501 1501 1502 1502 1502 1502 1502 1501 1500
1478 1478 1479 1480 1481 1482 1483 1484 1485 1486 1487 1488 1488 1489 1490 1491 1492 1492 1493 1493 1494 1494 1495 1495 1494 1495 1495 1495 1496 1497 1497 1497 1498 1498 1498 1498 1497 1497
1472 1473 1474 1475 1477 1478 1480 1480 1482 1483 1484 1485 1487 1487 1488 1489 1489 1489 1489 1489 1490 1490 1490 1490 1490 1490 1490 1490 1491 1491 1492 1493 1494 1494 1494 1494 1493 1492
1469 1469 1470 1471 1472 1474 1476 1477 1479 1480 1482 1483 1484 1485 1485 1486 1486 1486 1487 1487 1487 1487 1486 1486 1485 1484 1485 1485 1485 1486 1487 1488 1489 1489 1490 1490 1489 1489
1466 1466 1466 1467 1469 1471 1473 1474 1477 1479 1480 1481 1481 1482 1483 1484 1485 1485 1485 1486 1485 1485 1484 1483 1482 1482 1480 1480 1480 1480 1480 1481 1482 1483 1484 1484 1484 1483
1463 1464 1464 1466 1467 1469 1470 1473 1475 1477 1478 1479 1480 1481 1482 1483 1483 1484 1484 1483 1483 1482 1482 1481 1480 1478 1478 1477 1476 1475 1475 1475 1476 1476 1476 1476 1477 1477
1461 1462 1463 1465 1466 1468 1470 1473 1475 1476 1477 1478 1479 1480 1480 1481 1481 1481 1481 1480 1479 1479 1478 1477 1476 1475 1474 1473 1473 1471 1471 1471 1471 1471 1470 1469 1468 1469
1459 1461 1463 1464 1466 1468 1471 1473 1474 1475 1476 1477 1478 1478 1479 1478 1478 1478 1477 1477 1476 1475 1474 1473 1472 1471 1470 1468 1467 1467 1467 1466 1466 1465 1464 1463 1461 1461
1462 1462 1463 1465 1466 1469 1471 1472 1473 1474 1475 1476 1476 1476 1476 1476 1475 1475 1474 1474 1473 1472 1470 1470 1468 1467 1466 1465 1462 1461 1461 1460 1459 1458 1457 1456 1455 1455
1467 1467 1468 1469 1470 1471 1472 1473 1474 1474 1475 1475 1475 1475 1474 1473 1473 1472 1471 1470 1469 1468 1467 1466 1465 1464 1462 1460 1458 1456 1455 1454 1453 1452 1451 1449 1448 1447
1473 1472 1472 1473 1473 1473 1474 1474 1474 1475 1475 1475 1474 1473 1472 1471 1470 1468 1467 1466 1465 1464 1463 1462 1460 1459 1457 1455 1453 1451 1449 1448 1447 1446 1445 1444 1442 1440
1475 1475 1475 1475 1474 1474 1474 1474 1474 1474 1474 1473 1472 1470 1469 1467 1466 1465 1464 1462 1461 1459 1458 1456 1455 1454 1452 1450 1448 1446 1444 1443 1441 1440 1438 1437 1435 1435